Time,TemperatureF,DewpointF,PressureIn,WindDirection,WindDirectionDegrees,WindSpeedMPH,WindSpeedGustMPH,Humidity,HourlyPrecipIn,Conditions,Clouds,dailyrainin,SoftwareType,DateUTC
2013-09-12 00:01:00,70.7,66.6,29.97,SSE,168,0.0,0.0,87,0.00,,,0.00,PWS Weather Center,2013-09-12 04:01:00,
2013-09-12 00:02:00,70.7,66.6,29.97,SW,236,0.0,0.0,87,0.00,,,0.00,PWS Weather Center,2013-09-12 04:02:00,
2013-09-12 00:06:00,70.6,66.5,29.97,SW,227,0.0,0.0,87,0.00,,,0.00,PWS Weather Center,2013-09-12 04:06:00,
2013-09-12 00:11:00,70.6,66.5,29.97,SW,223,0.0,0.0,87,0.00,,,0.00,PWS Weather Center,2013-09-12 04:11:00,
2013-09-12 00:16:00,70.7,66.6,29.97,SW,236,0.0,0.0,87,0.00,,,0.00,PWS Weather Center,2013-09-12 04:16:00,
2013-09-12 00:21:00,70.8,67.1,29.97,SW,232,0.0,0.0,88,0.00,,,0.00,PWS Weather Center,2013-09-12 04:21:00,
2013-09-12 00:26:00,70.8,67.1,29.96,SW,233,0.0,0.0,88,0.00,,,0.00,PWS Weather Center,2013-09-12 04:26:00,
2013-09-12 00:31:00,70.8,67.1,29.96,WSW,237,0.0,0.0,88,0.00,,,0.00,PWS Weather Center,2013-09-12 04:31:00,
2013-09-12 00:36:00,70.7,67.0,29.95,SW,236,0.0,0.0,88,0.00,,,0.00,PWS Weather Center,2013-09-12 04:36:00,
2013-09-12 00:37:00,70.7,67.0,29.95,SW,236,0.0,0.0,88,0.00,,,0.00,PWS Weather Center,2013-09-12 04:37:00,
2013-09-12 00:39:00,70.6,66.9,29.95,SW,227,0.0,0.0,88,0.00,,,0.00,PWS Weather Center,2013-09-12 04:39:00,
2013-09-12 00:44:00,70.5,67.1,29.95,WSW,237,0.0,0.0,89,0.00,,,0.00,PWS Weather Center,2013-09-12 04:44:00,
2013-09-12 00:49:00,70.3,66.9,29.95,SW,236,0.0,0.0,89,0.00,,,0.00,PWS Weather Center,2013-09-12 04:49:00,
2013-09-12 00:54:00,70.2,66.8,29.95,SW,225,0.0,0.0,89,0.00,,,0.00,PWS Weather Center,2013-09-12 04:54:00,
2013-09-12 00:59:00,70.1,67.0,29.95,SW,236,0.0,0.0,90,0.00,,,0.00,PWS Weather Center,2013-09-12 04:59:00,
2013-09-12 01:04:00,70.0,66.9,29.95,South,183,0.0,1.0,90,0.00,,,0.00,PWS Weather Center,2013-09-12 05:04:00,
2013-09-12 01:09:00,69.9,66.8,29.95,SW,225,0.0,0.0,90,0.00,,,0.00,PWS Weather Center,2013-09-12 05:09:00,
2013-09-12 01:14:00,69.9,66.8,29.95,SSW,192,0.0,0.0,90,0.00,,,0.00,PWS Weather Center,2013-09-12 05:14:00,
2013-09-12 01:19:00,69.9,66.8,29.95,SW,227,0.0,0.0,90,0.00,,,0.00,PWS Weather Center,2013-09-12 05:19:00,
2013-09-12 01:24:00,69.9,66.8,29.94,SW,236,0.0,0.0,90,0.00,,,0.00,PWS Weather Center,2013-09-12 05:24:00,
2013-09-12 01:29:00,69.9,67.2,29.94,SW,225,0.0,0.0,91,0.00,,,0.00,PWS Weather Center,2013-09-12 05:29:00,
2013-09-12 01:34:00,70.0,67.3,29.94,SSE,163,0.0,0.0,91,0.00,,,0.00,PWS Weather Center,2013-09-12 05:34:00,
2013-09-12 01:39:00,70.1,67.4,29.94,SW,232,0.0,0.0,91,0.00,,,0.00,PWS Weather Center,2013-09-12 05:39:00,
2013-09-12 01:45:00,70.0,67.3,29.93,SW,232,0.0,0.0,91,0.00,,,0.00,PWS Weather Center,2013-09-12 05:45:00,
2013-09-12 01:50:00,70.0,67.3,29.93,SW,227,0.0,0.0,91,0.00,,,0.00,PWS Weather Center,2013-09-12 05:50:00,
2013-09-12 01:55:00,69.8,67.1,29.93,SW,236,0.0,0.0,91,0.00,,,0.00,PWS Weather Center,2013-09-12 05:55:00,
2013-09-12 02:00:00,69.7,67.0,29.93,SW,232,0.0,0.0,91,0.00,,,0.00,PWS Weather Center,2013-09-12 06:00:00,
2013-09-12 02:05:00,69.6,66.9,29.94,SW,232,0.0,0.0,91,0.00,,,0.00,PWS Weather Center,2013-09-12 06:05:00,
2013-09-12 02:10:00,69.5,66.8,29.94,SW,221,0.0,0.0,91,0.00,,,0.00,PWS Weather Center,2013-09-12 06:10:00,
2013-09-12 02:15:00,69.5,67.1,29.93,SW,230,0.0,0.0,92,0.00,,,0.00,PWS Weather Center,2013-09-12 06:15:00,
2013-09-12 02:20:00,69.4,67.0,29.93,SW,227,0.0,0.0,92,0.00,,,0.00,PWS Weather Center,2013-09-12 06:20:00,
2013-09-12 02:25:00,69.4,67.0,29.93,SW,227,0.0,0.0,92,0.00,,,0.00,PWS Weather Center,2013-09-12 06:25:00,
2013-09-12 02:30:00,69.2,66.8,29.93,SW,223,0.0,0.0,92,0.00,,,0.00,PWS Weather Center,2013-09-12 06:30:00,
2013-09-12 02:35:00,69.1,66.7,29.93,SW,232,0.0,0.0,92,0.00,,,0.00,PWS Weather Center,2013-09-12 06:35:00,
2013-09-12 02:40:00,69.0,66.6,29.93,SW,232,0.0,0.0,92,0.00,,,0.00,PWS Weather Center,2013-09-12 06:40:00,
2013-09-12 02:45:00,69.1,67.0,29.93,SW,221,0.0,0.0,93,0.00,,,0.00,PWS Weather Center,2013-09-12 06:45:00,
2013-09-12 02:50:00,69.2,67.1,29.93,SW,230,0.0,0.0,93,0.00,,,0.00,PWS Weather Center,2013-09-12 06:50:00,
2013-09-12 02:55:00,69.3,67.2,29.93,SW,232,0.0,0.0,93,0.00,,,0.00,PWS Weather Center,2013-09-12 06:55:00,
2013-09-12 03:00:00,69.4,67.6,29.93,SW,223,0.0,0.0,94,0.00,,,0.00,PWS Weather Center,2013-09-12 07:00:00,
2013-09-12 03:05:00,69.4,67.6,29.93,SW,236,0.0,0.0,94,0.00,,,0.00,PWS Weather Center,2013-09-12 07:05:00,
2013-09-12 03:10:00,69.3,67.5,29.93,SW,227,0.0,0.0,94,0.00,,,0.00,PWS Weather Center,2013-09-12 07:10:00,
2013-09-12 03:15:00,69.4,67.6,29.93,SW,227,0.0,0.0,94,0.00,,,0.00,PWS Weather Center,2013-09-12 07:15:00,
2013-09-12 03:20:00,69.7,67.9,29.93,SW,236,0.0,0.0,94,0.00,,,0.00,PWS Weather Center,2013-09-12 07:20:00,
2013-09-12 03:25:00,69.8,68.0,29.93,SW,232,0.0,0.0,94,0.00,,,0.00,PWS Weather Center,2013-09-12 07:25:00,
2013-09-12 03:30:00,69.9,68.1,29.93,SW,226,0.0,2.0,94,0.00,,,0.00,PWS Weather Center,2013-09-12 07:30:00,
2013-09-12 03:35:00,70.0,68.2,29.93,SW,227,0.0,0.0,94,0.00,,,0.00,PWS Weather Center,2013-09-12 07:35:00,
2013-09-12 03:40:00,69.9,68.1,29.92,SW,236,0.0,0.0,94,0.00,,,0.00,PWS Weather Center,2013-09-12 07:40:00,
2013-09-12 03:45:00,69.8,68.0,29.93,SW,236,0.0,0.0,94,0.00,,,0.00,PWS Weather Center,2013-09-12 07:45:00,
2013-09-12 03:50:00,69.7,67.9,29.92,SW,227,0.0,0.0,94,0.00,,,0.00,PWS Weather Center,2013-09-12 07:50:00,
2013-09-12 03:55:00,69.7,67.9,29.92,SW,236,0.0,0.0,94,0.00,,,0.00,PWS Weather Center,2013-09-12 07:55:00,
2013-09-12 04:00:00,69.5,67.7,29.92,SW,235,0.0,0.0,94,0.00,,,0.00,PWS Weather Center,2013-09-12 08:00:00,
2013-09-12 04:05:00,69.3,67.5,29.92,SW,227,0.0,0.0,94,0.00,,,0.00,PWS Weather Center,2013-09-12 08:05:00,
2013-09-12 04:10:00,69.2,67.4,29.92,SW,227,0.0,0.0,94,0.00,,,0.00,PWS Weather Center,2013-09-12 08:10:00,
2013-09-12 04:15:00,69.2,67.4,29.93,SW,223,0.0,0.0,94,0.00,,,0.00,PWS Weather Center,2013-09-12 08:15:00,
2013-09-12 04:20:00,69.1,67.6,29.93,SW,232,0.0,0.0,95,0.00,,,0.00,PWS Weather Center,2013-09-12 08:20:00,
2013-09-12 04:25:00,69.1,67.6,29.92,SW,232,0.0,0.0,95,0.00,,,0.00,PWS Weather Center,2013-09-12 08:25:00,
2013-09-12 04:30:00,69.0,67.5,29.93,SW,225,0.0,0.0,95,0.00,,,0.00,PWS Weather Center,2013-09-12 08:30:00,
2013-09-12 04:35:00,68.6,66.8,29.92,SW,229,0.0,0.0,94,0.00,,,0.00,PWS Weather Center,2013-09-12 08:35:00,
2013-09-12 04:40:00,68.4,66.9,29.92,SW,230,0.0,0.0,95,0.00,,,0.00,PWS Weather Center,2013-09-12 08:40:00,
2013-09-12 04:46:00,68.3,66.8,29.92,SW,227,0.0,0.0,95,0.00,,,0.00,PWS Weather Center,2013-09-12 08:46:00,
2013-09-12 04:51:00,68.1,66.6,29.92,SW,230,0.0,0.0,95,0.00,,,0.00,PWS Weather Center,2013-09-12 08:51:00,
2013-09-12 04:56:00,68.0,66.5,29.92,SW,227,0.0,0.0,95,0.00,,,0.00,PWS Weather Center,2013-09-12 08:56:00,
2013-09-12 05:01:00,67.9,66.4,29.92,SW,226,0.0,0.0,95,0.00,,,0.00,PWS Weather Center,2013-09-12 09:01:00,
2013-09-12 05:06:00,67.9,66.4,29.92,SW,221,0.0,0.0,95,0.00,,,0.00,PWS Weather Center,2013-09-12 09:06:00,
2013-09-12 05:11:00,67.9,66.4,29.92,SW,235,0.0,0.0,95,0.00,,,0.00,PWS Weather Center,2013-09-12 09:11:00,
2013-09-12 05:16:00,67.9,66.4,29.92,SW,230,0.0,0.0,95,0.00,,,0.00,PWS Weather Center,2013-09-12 09:16:00,
2013-09-12 05:21:00,68.0,66.5,29.92,SW,222,0.0,0.0,95,0.00,,,0.00,PWS Weather Center,2013-09-12 09:21:00,
2013-09-12 05:26:00,68.1,66.6,29.92,SW,236,0.0,0.0,95,0.00,,,0.00,PWS Weather Center,2013-09-12 09:26:00,
2013-09-12 05:31:00,68.1,66.6,29.92,SW,230,0.0,0.0,95,0.00,,,0.00,PWS Weather Center,2013-09-12 09:31:00,
2013-09-12 05:36:00,68.2,67.0,29.92,SW,226,0.0,0.0,96,0.00,,,0.00,PWS Weather Center,2013-09-12 09:36:00,
2013-09-12 05:41:00,68.2,67.0,29.92,SW,220,0.0,0.0,96,0.00,,,0.00,PWS Weather Center,2013-09-12 09:41:00,
2013-09-12 05:46:00,68.3,67.1,29.92,SW,224,0.0,0.0,96,0.00,,,0.00,PWS Weather Center,2013-09-12 09:46:00,
2013-09-12 05:51:00,68.3,67.1,29.92,SSE,157,0.0,0.0,96,0.00,,,0.00,PWS Weather Center,2013-09-12 09:51:00,
2013-09-12 05:56:00,68.4,67.2,29.92,SW,232,0.0,1.0,96,0.00,,,0.00,PWS Weather Center,2013-09-12 09:56:00,
2013-09-12 06:01:00,68.3,67.1,29.92,South,191,0.0,0.0,96,0.00,,,0.00,PWS Weather Center,2013-09-12 10:01:00,
2013-09-12 06:06:00,68.3,67.1,29.91,SSE,165,0.0,0.0,96,0.00,,,0.00,PWS Weather Center,2013-09-12 10:06:00,
2013-09-12 06:11:00,68.3,67.1,29.91,SW,226,0.0,0.0,96,0.00,,,0.00,PWS Weather Center,2013-09-12 10:11:00,
2013-09-12 06:16:00,68.2,67.0,29.91,South,190,0.0,0.0,96,0.00,,,0.00,PWS Weather Center,2013-09-12 10:16:00,
2013-09-12 06:21:00,68.2,67.0,29.91,South,190,0.0,0.0,96,0.00,,,0.00,PWS Weather Center,2013-09-12 10:21:00,
2013-09-12 06:26:00,68.2,67.0,29.91,SSE,155,0.0,0.0,96,0.00,,,0.00,PWS Weather Center,2013-09-12 10:26:00,
2013-09-12 06:31:00,68.1,66.9,29.91,SW,235,0.0,0.0,96,0.00,,,0.00,PWS Weather Center,2013-09-12 10:31:00,
2013-09-12 06:36:00,68.1,66.9,29.91,SW,230,0.0,0.0,96,0.00,,,0.00,PWS Weather Center,2013-09-12 10:36:00,
2013-09-12 06:41:00,68.2,67.0,29.90,SW,225,0.0,0.0,96,0.00,,,0.00,PWS Weather Center,2013-09-12 10:41:00,
2013-09-12 06:46:00,68.3,67.1,29.91,SW,232,0.0,0.0,96,0.00,,,0.00,PWS Weather Center,2013-09-12 10:46:00,
2013-09-12 06:51:00,68.3,67.1,29.91,SW,230,0.0,0.0,96,0.00,,,0.00,PWS Weather Center,2013-09-12 10:51:00,
2013-09-12 06:56:00,68.3,67.1,29.91,SW,220,0.0,1.0,96,0.00,,,0.00,PWS Weather Center,2013-09-12 10:56:00,
2013-09-12 07:01:00,68.3,67.1,29.90,SSE,154,0.0,0.0,96,0.00,,,0.00,PWS Weather Center,2013-09-12 11:01:00,
2013-09-12 07:06:00,68.3,67.1,29.90,SW,235,0.0,0.0,96,0.00,,,0.00,PWS Weather Center,2013-09-12 11:06:00,
2013-09-12 07:11:00,68.4,67.2,29.90,South,191,0.0,0.0,96,0.00,,,0.00,PWS Weather Center,2013-09-12 11:11:00,
2013-09-12 07:16:00,68.5,67.3,29.90,SE,146,0.0,0.0,96,0.00,,,0.00,PWS Weather Center,2013-09-12 11:16:00,
2013-09-12 07:21:00,68.5,67.3,29.90,SW,232,0.0,0.0,96,0.00,,,0.00,PWS Weather Center,2013-09-12 11:21:00,
2013-09-12 07:26:00,68.5,67.3,29.90,SW,230,0.0,0.0,96,0.00,,,0.00,PWS Weather Center,2013-09-12 11:26:00,
2013-09-12 07:31:00,68.6,67.4,29.90,SSE,163,0.0,0.0,96,0.00,,,0.00,PWS Weather Center,2013-09-12 11:31:00,
2013-09-12 07:37:00,68.8,67.6,29.90,SW,232,0.0,0.0,96,0.00,,,0.00,PWS Weather Center,2013-09-12 11:37:00,
2013-09-12 07:42:00,68.9,67.7,29.90,SSE,152,0.0,0.0,96,0.00,,,0.00,PWS Weather Center,2013-09-12 11:42:00,
2013-09-12 07:47:00,69.1,67.9,29.90,SW,230,0.0,0.0,96,0.00,,,0.00,PWS Weather Center,2013-09-12 11:47:00,
2013-09-12 07:52:00,69.2,68.0,29.90,SW,221,0.0,0.0,96,0.00,,,0.00,PWS Weather Center,2013-09-12 11:52:00,
2013-09-12 07:57:00,69.4,68.2,29.90,SW,236,0.0,1.0,96,0.00,,,0.00,PWS Weather Center,2013-09-12 11:57:00,
2013-09-12 08:02:00,69.7,68.5,29.90,SW,236,0.0,0.0,96,0.00,,,0.00,PWS Weather Center,2013-09-12 12:02:00,
2013-09-12 08:07:00,69.9,68.7,29.90,SW,230,0.0,0.0,96,0.00,,,0.00,PWS Weather Center,2013-09-12 12:07:00,
2013-09-12 08:12:00,70.1,68.9,29.90,SW,219,0.0,0.0,96,0.00,,,0.00,PWS Weather Center,2013-09-12 12:12:00,
2013-09-12 08:17:00,70.3,69.4,29.90,South,190,0.0,1.0,97,0.00,,,0.00,PWS Weather Center,2013-09-12 12:17:00,
2013-09-12 08:22:00,70.4,69.5,29.90,SSE,164,0.0,0.0,97,0.00,,,0.00,PWS Weather Center,2013-09-12 12:22:00,
2013-09-12 08:27:00,71.1,70.2,29.90,SW,225,0.0,0.0,97,0.00,,,0.00,PWS Weather Center,2013-09-12 12:27:00,
2013-09-12 08:32:00,71.3,70.1,29.90,SW,232,0.0,0.0,96,0.00,,,0.00,PWS Weather Center,2013-09-12 12:32:00,
2013-09-12 08:37:00,71.5,70.3,29.90,SW,230,0.0,0.0,96,0.00,,,0.00,PWS Weather Center,2013-09-12 12:37:00,
2013-09-12 08:42:00,71.5,70.3,29.89,SW,232,0.0,0.0,96,0.00,,,0.00,PWS Weather Center,2013-09-12 12:42:00,
2013-09-12 08:47:00,71.5,70.3,29.89,SW,236,0.0,2.0,96,0.00,,,0.00,PWS Weather Center,2013-09-12 12:47:00,
2013-09-12 08:52:00,72.0,70.8,29.89,SW,232,0.0,0.0,96,0.00,,,0.00,PWS Weather Center,2013-09-12 12:52:00,
2013-09-12 08:57:00,72.3,71.1,29.89,SSE,163,0.0,1.0,96,0.00,,,0.00,PWS Weather Center,2013-09-12 12:57:00,
2013-09-12 09:02:00,72.7,71.5,29.89,SW,236,0.0,1.0,96,0.00,,,0.00,PWS Weather Center,2013-09-12 13:02:00,
2013-09-12 09:07:00,73.2,72.0,29.88,SW,220,0.0,0.0,96,0.00,,,0.00,PWS Weather Center,2013-09-12 13:07:00,
2013-09-12 09:12:00,73.8,72.6,29.89,SW,225,0.0,1.0,96,0.00,,,0.00,PWS Weather Center,2013-09-12 13:12:00,
2013-09-12 09:17:00,74.3,72.8,29.88,SW,227,0.0,1.0,95,0.00,,,0.00,PWS Weather Center,2013-09-12 13:17:00,
2013-09-12 09:22:00,74.7,72.9,29.88,SW,236,1.0,2.0,94,0.00,,,0.00,PWS Weather Center,2013-09-12 13:22:00,
2013-09-12 09:27:00,75.4,72.6,29.88,SW,233,0.0,1.0,91,0.00,,,0.00,PWS Weather Center,2013-09-12 13:27:00,
2013-09-12 09:32:00,76.2,73.1,29.88,North,360,0.0,0.0,90,0.00,,,0.00,PWS Weather Center,2013-09-12 13:32:00,
2013-09-12 09:37:00,76.6,72.8,29.88,WSW,237,0.0,1.0,88,0.00,,,0.00,PWS Weather Center,2013-09-12 13:37:00,
2013-09-12 09:42:00,76.8,72.6,29.88,WSW,237,0.0,0.0,87,0.00,,,0.00,PWS Weather Center,2013-09-12 13:42:00,
2013-09-12 09:47:00,76.7,72.5,29.87,SW,223,0.0,1.0,87,0.00,,,0.00,PWS Weather Center,2013-09-12 13:47:00,
2013-09-12 09:52:00,77.1,72.9,29.87,SW,234,0.0,0.0,87,0.00,,,0.00,PWS Weather Center,2013-09-12 13:52:00,
2013-09-12 09:57:00,78.1,73.6,29.87,SW,234,0.0,2.0,86,0.00,,,0.00,PWS Weather Center,2013-09-12 13:57:00,
2013-09-12 10:02:00,78.7,73.8,29.87,South,191,0.0,1.0,85,0.00,,,0.00,PWS Weather Center,2013-09-12 14:02:00,
2013-09-12 10:07:00,79.1,73.5,29.87,SE,138,0.0,0.0,83,0.00,,,0.00,PWS Weather Center,2013-09-12 14:07:00,
2013-09-12 10:12:00,79.0,73.0,29.86,WSW,238,0.0,2.0,82,0.00,,,0.00,PWS Weather Center,2013-09-12 14:12:00,
2013-09-12 10:17:00,78.7,73.1,29.86,SW,225,0.0,1.0,83,0.00,,,0.00,PWS Weather Center,2013-09-12 14:17:00,
2013-09-12 10:22:00,78.5,73.3,29.86,SW,225,0.0,1.0,84,0.00,,,0.00,PWS Weather Center,2013-09-12 14:22:00,
2013-09-12 10:27:00,78.7,73.5,29.86,ENE,57,1.0,2.0,84,0.00,,,0.00,PWS Weather Center,2013-09-12 14:27:00,
2013-09-12 10:32:00,78.9,73.7,29.85,ENE,77,0.0,1.0,84,0.00,,,0.00,PWS Weather Center,2013-09-12 14:32:00,
2013-09-12 10:37:00,79.1,73.5,29.85,ENE,74,0.0,2.0,83,0.00,,,0.00,PWS Weather Center,2013-09-12 14:37:00,
2013-09-12 10:42:00,79.6,74.3,29.85,ENE,72,1.0,2.0,84,0.00,,,0.00,PWS Weather Center,2013-09-12 14:42:00,
2013-09-12 10:47:00,79.9,74.3,29.85,NNE,13,3.0,3.0,83,0.00,,,0.00,PWS Weather Center,2013-09-12 14:47:00,
2013-09-12 10:52:00,80.2,73.8,29.85,SE,133,0.0,3.0,81,0.00,,,0.00,PWS Weather Center,2013-09-12 14:52:00,
2013-09-12 10:57:00,80.1,74.1,29.85,ENE,77,0.0,1.0,82,0.00,,,0.00,PWS Weather Center,2013-09-12 14:57:00,
2013-09-12 11:02:00,80.0,73.6,29.85,ESE,123,0.0,2.0,81,0.00,,,0.00,PWS Weather Center,2013-09-12 15:02:00,
2013-09-12 11:07:00,79.6,73.3,29.85,SSW,203,2.0,3.0,81,0.00,,,0.00,PWS Weather Center,2013-09-12 15:07:00,
2013-09-12 11:12:00,79.5,73.9,29.85,SE,140,0.0,2.0,83,0.00,,,0.00,PWS Weather Center,2013-09-12 15:12:00,
2013-09-12 11:17:00,79.8,74.2,29.85,SSW,209,0.0,3.0,83,0.00,,,0.00,PWS Weather Center,2013-09-12 15:17:00,
2013-09-12 11:22:00,80.5,74.5,29.85,South,188,0.0,5.0,82,0.00,,,0.00,PWS Weather Center,2013-09-12 15:22:00,
2013-09-12 11:27:00,81.0,74.3,29.85,East,94,2.0,5.0,80,0.00,,,0.00,PWS Weather Center,2013-09-12 15:27:00,
2013-09-12 11:32:00,81.1,74.7,29.85,ESE,117,0.0,1.0,81,0.00,,,0.00,PWS Weather Center,2013-09-12 15:32:00,
2013-09-12 11:37:00,80.9,74.5,29.85,ESE,105,0.0,4.0,81,0.00,,,0.00,PWS Weather Center,2013-09-12 15:37:00,
2013-09-12 11:42:00,80.6,73.9,29.85,ENE,78,0.0,4.0,80,0.00,,,0.00,PWS Weather Center,2013-09-12 15:42:00,
2013-09-12 11:47:00,80.4,74.0,29.84,SE,142,0.0,5.0,81,0.00,,,0.00,PWS Weather Center,2013-09-12 15:47:00,
2013-09-12 11:52:00,80.6,74.6,29.84,West,263,3.0,5.0,82,0.00,,,0.00,PWS Weather Center,2013-09-12 15:52:00,
2013-09-12 11:57:00,81.2,74.8,29.84,WSW,240,0.0,5.0,81,0.00,,,0.00,PWS Weather Center,2013-09-12 15:57:00,
2013-09-12 12:02:00,81.2,74.4,29.84,ESE,121,6.0,6.0,80,0.00,,,0.00,PWS Weather Center,2013-09-12 16:02:00,
2013-09-12 12:07:00,80.8,74.1,29.84,NNE,17,1.0,5.0,80,0.00,,,0.00,PWS Weather Center,2013-09-12 16:07:00,
2013-09-12 12:12:00,80.6,74.2,29.83,SSW,207,3.0,4.0,81,0.00,,,0.00,PWS Weather Center,2013-09-12 16:12:00,
2013-09-12 12:17:00,80.8,74.8,29.83,South,184,0.0,2.0,82,0.00,,,0.00,PWS Weather Center,2013-09-12 16:17:00,
2013-09-12 12:22:00,81.0,74.3,29.83,South,183,0.0,1.0,80,0.00,,,0.00,PWS Weather Center,2013-09-12 16:22:00,
2013-09-12 12:27:00,80.9,74.2,29.83,WSW,238,1.0,5.0,80,0.00,,,0.00,PWS Weather Center,2013-09-12 16:27:00,
2013-09-12 12:32:00,80.7,73.6,29.82,South,169,5.0,6.0,79,0.00,,,0.00,PWS Weather Center,2013-09-12 16:32:00,
2013-09-12 12:37:00,80.8,74.1,29.82,South,184,0.0,3.0,80,0.00,,,0.00,PWS Weather Center,2013-09-12 16:37:00,
2013-09-12 12:42:00,81.0,73.5,29.82,South,176,1.0,5.0,78,0.00,,,0.00,PWS Weather Center,2013-09-12 16:42:00,
2013-09-12 12:47:00,81.0,73.9,29.82,SSE,156,0.0,1.0,79,0.00,,,0.00,PWS Weather Center,2013-09-12 16:47:00,
2013-09-12 12:52:00,81.3,74.2,29.81,West,273,0.0,5.0,79,0.00,,,0.00,PWS Weather Center,2013-09-12 16:52:00,
2013-09-12 12:57:00,81.7,73.4,29.81,West,265,0.0,8.0,76,0.00,,,0.00,PWS Weather Center,2013-09-12 16:57:00,
2013-09-12 13:02:00,81.7,73.8,29.81,SW,216,0.0,4.0,77,0.00,,,0.00,PWS Weather Center,2013-09-12 17:02:00,
2013-09-12 13:07:00,81.9,73.6,29.81,East,99,0.0,1.0,76,0.00,,,0.00,PWS Weather Center,2013-09-12 17:07:00,
2013-09-12 13:12:00,82.2,73.5,29.81,SSE,165,0.0,2.0,75,0.00,,,0.00,PWS Weather Center,2013-09-12 17:12:00,
2013-09-12 13:17:00,82.2,73.1,29.80,North,360,1.0,4.0,74,0.00,,,0.00,PWS Weather Center,2013-09-12 17:17:00,
2013-09-12 13:22:00,82.0,72.9,29.80,SSW,193,6.0,7.0,74,0.00,,,0.00,PWS Weather Center,2013-09-12 17:22:00,
2013-09-12 13:27:00,81.6,73.3,29.80,South,170,2.0,2.0,76,0.00,,,0.00,PWS Weather Center,2013-09-12 17:27:00,
2013-09-12 13:32:00,81.7,72.6,29.80,SE,142,6.0,11.0,74,0.00,,,0.00,PWS Weather Center,2013-09-12 17:32:00,
2013-09-12 13:37:00,81.7,72.2,29.80,SSE,157,5.0,12.0,73,0.00,,,0.00,PWS Weather Center,2013-09-12 17:37:00,
2013-09-12 13:42:00,81.6,72.9,29.79,South,171,0.0,1.0,75,0.00,,,0.00,PWS Weather Center,2013-09-12 17:42:00,
2013-09-12 13:47:00,82.1,73.4,29.79,SSE,152,3.0,5.0,75,0.00,,,0.00,PWS Weather Center,2013-09-12 17:47:00,
2013-09-12 13:52:00,82.5,72.6,29.79,ESE,121,5.0,6.0,72,0.00,,,0.00,PWS Weather Center,2013-09-12 17:52:00,
2013-09-12 13:57:00,82.4,72.5,29.79,NNE,24,6.0,7.0,72,0.00,,,0.00,PWS Weather Center,2013-09-12 17:57:00,
2013-09-12 14:02:00,82.4,72.1,29.79,South,180,6.0,6.0,71,0.00,,,0.00,PWS Weather Center,2013-09-12 18:02:00,
2013-09-12 14:07:00,82.6,72.7,29.78,South,190,5.0,5.0,72,0.00,,,0.00,PWS Weather Center,2013-09-12 18:07:00,
2013-09-12 14:12:00,82.4,72.1,29.78,South,180,3.0,6.0,71,0.00,,,0.00,PWS Weather Center,2013-09-12 18:12:00,
2013-09-12 14:17:00,82.7,72.8,29.78,East,85,6.0,6.0,72,0.00,,,0.00,PWS Weather Center,2013-09-12 18:17:00,
2013-09-12 14:22:00,82.5,71.7,29.77,SE,138,3.0,9.0,70,0.00,,,0.00,PWS Weather Center,2013-09-12 18:22:00,
2013-09-12 14:27:00,82.4,71.2,29.77,SSW,196,2.0,10.0,69,0.00,,,0.00,PWS Weather Center,2013-09-12 18:27:00,
2013-09-12 14:32:00,81.8,71.5,29.77,ESE,107,2.0,7.0,71,0.00,,,0.00,PWS Weather Center,2013-09-12 18:32:00,
2013-09-12 14:37:00,81.8,71.5,29.77,SSW,202,9.0,9.0,71,0.00,,,0.00,PWS Weather Center,2013-09-12 18:37:00,
2013-09-12 14:42:00,81.4,71.5,29.77,SW,214,0.0,10.0,72,0.00,,,0.00,PWS Weather Center,2013-09-12 18:42:00,
2013-09-12 14:47:00,80.8,71.3,29.76,SSE,161,7.0,7.0,73,0.00,,,0.00,PWS Weather Center,2013-09-12 18:47:00,
2013-09-12 14:52:00,80.3,71.3,29.76,South,171,4.0,5.0,74,0.00,,,0.00,PWS Weather Center,2013-09-12 18:52:00,
2013-09-12 14:57:00,80.1,71.5,29.76,SSE,161,0.0,2.0,75,0.00,,,0.00,PWS Weather Center,2013-09-12 18:57:00,
2013-09-12 15:02:00,80.1,71.5,29.75,South,175,6.0,6.0,75,0.00,,,0.00,PWS Weather Center,2013-09-12 19:02:00,
2013-09-12 15:07:00,79.8,71.2,29.75,SE,146,1.0,15.0,75,0.00,,,0.00,PWS Weather Center,2013-09-12 19:07:00,
2013-09-12 15:12:00,79.6,71.4,29.75,SW,227,1.0,6.0,76,0.00,,,0.00,PWS Weather Center,2013-09-12 19:12:00,
2013-09-12 15:17:00,79.4,71.6,29.75,SSE,159,4.0,4.0,77,0.00,,,0.00,PWS Weather Center,2013-09-12 19:17:00,
2013-09-12 15:22:00,79.3,71.9,29.75,SE,142,0.0,4.0,78,0.00,,,0.00,PWS Weather Center,2013-09-12 19:22:00,
2013-09-12 15:27:00,79.3,71.9,29.74,East,93,0.0,0.0,78,0.00,,,0.00,PWS Weather Center,2013-09-12 19:27:00,
2013-09-12 15:32:00,79.2,72.1,29.73,ENE,72,0.0,4.0,79,0.00,,,0.00,PWS Weather Center,2013-09-12 19:32:00,
2013-09-12 15:37:00,79.0,71.9,29.73,East,96,4.0,4.0,79,0.00,,,0.00,PWS Weather Center,2013-09-12 19:37:00,
2013-09-12 15:42:00,79.0,72.3,29.73,West,268,0.0,1.0,80,0.00,,,0.00,PWS Weather Center,2013-09-12 19:42:00,
2013-09-12 15:47:00,79.1,72.4,29.73,SSW,205,4.0,5.0,80,0.00,,,0.00,PWS Weather Center,2013-09-12 19:47:00,
2013-09-12 15:52:00,79.0,72.3,29.74,SSE,153,1.0,8.0,80,0.00,,,0.00,PWS Weather Center,2013-09-12 19:52:00,
2013-09-12 15:57:00,78.7,72.0,29.74,ESE,118,0.0,3.0,80,0.00,,,0.00,PWS Weather Center,2013-09-12 19:57:00,
2013-09-12 16:02:00,78.3,72.0,29.74,ESE,114,0.0,3.0,81,0.00,,,0.00,PWS Weather Center,2013-09-12 20:02:00,
2013-09-12 16:07:00,77.9,72.0,29.74,ESE,105,0.0,2.0,82,0.00,,,0.00,PWS Weather Center,2013-09-12 20:07:00,
2013-09-12 16:12:00,77.6,72.0,29.74,SE,133,5.0,6.0,83,0.00,,,0.00,PWS Weather Center,2013-09-12 20:12:00,
2013-09-12 16:17:00,77.4,71.8,29.74,South,174,0.0,1.0,83,0.00,,,0.00,PWS Weather Center,2013-09-12 20:17:00,
2013-09-12 16:22:00,77.3,72.1,29.73,NE,40,0.0,1.0,84,0.00,,,0.00,PWS Weather Center,2013-09-12 20:22:00,
2013-09-12 16:27:00,77.1,71.9,29.72,ESE,103,0.0,9.0,84,0.00,,,0.00,PWS Weather Center,2013-09-12 20:27:00,
2013-09-12 16:32:00,77.0,71.8,29.73,SE,145,0.0,4.0,84,0.00,,,0.00,PWS Weather Center,2013-09-12 20:32:00,
2013-09-12 16:37:00,77.0,71.8,29.72,SSE,159,1.0,6.0,84,0.00,,,0.00,PWS Weather Center,2013-09-12 20:37:00,
2013-09-12 16:42:00,77.0,71.8,29.71,East,99,0.0,2.0,84,0.00,,,0.00,PWS Weather Center,2013-09-12 20:42:00,
2013-09-12 16:47:00,77.1,71.9,29.71,SSE,167,0.0,0.0,84,0.00,,,0.00,PWS Weather Center,2013-09-12 20:47:00,
2013-09-12 16:52:00,77.3,72.1,29.72,NNE,30,0.0,1.0,84,0.00,,,0.00,PWS Weather Center,2013-09-12 20:52:00,
2013-09-12 16:57:00,77.3,72.1,29.72,SE,140,5.0,5.0,84,0.00,,,0.00,PWS Weather Center,2013-09-12 20:57:00,
2013-09-12 17:02:00,77.1,71.9,29.72,WSW,253,0.0,1.0,84,0.00,,,0.00,PWS Weather Center,2013-09-12 21:02:00,
2013-09-12 17:07:00,77.1,72.2,29.72,NNE,30,0.0,1.0,85,0.00,,,0.00,PWS Weather Center,2013-09-12 21:07:00,
2013-09-12 17:12:00,77.1,72.2,29.72,East,94,1.0,5.0,85,0.00,,,0.00,PWS Weather Center,2013-09-12 21:12:00,
2013-09-12 17:17:00,76.8,71.6,29.72,NE,41,5.0,7.0,84,0.00,,,0.00,PWS Weather Center,2013-09-12 21:17:00,
2013-09-12 17:22:00,76.4,71.6,29.72,NE,40,0.0,2.0,85,0.00,,,0.00,PWS Weather Center,2013-09-12 21:22:00,
2013-09-12 17:27:00,76.1,71.6,29.73,SW,222,0.0,8.0,86,0.00,,,0.00,PWS Weather Center,2013-09-12 21:27:00,
2013-09-12 17:32:00,75.9,71.8,29.73,SW,217,0.0,0.0,87,0.00,,,0.00,PWS Weather Center,2013-09-12 21:32:00,
2013-09-12 17:37:00,75.8,71.7,29.73,SW,230,0.0,2.0,87,0.00,,,0.00,PWS Weather Center,2013-09-12 21:37:00,
2013-09-12 17:42:00,75.6,71.5,29.73,SSW,213,0.0,1.0,87,0.00,,,0.00,PWS Weather Center,2013-09-12 21:42:00,
2013-09-12 17:47:00,75.5,71.4,29.72,South,186,0.0,1.0,87,0.00,,,0.00,PWS Weather Center,2013-09-12 21:47:00,
2013-09-12 17:52:00,75.4,71.3,29.72,South,184,0.0,0.0,87,0.00,,,0.00,PWS Weather Center,2013-09-12 21:52:00,
2013-09-12 17:57:00,75.4,71.6,29.72,South,190,0.0,0.0,88,0.00,,,0.00,PWS Weather Center,2013-09-12 21:57:00,
2013-09-12 18:02:00,75.4,71.6,29.72,South,187,0.0,0.0,88,0.00,,,0.00,PWS Weather Center,2013-09-12 22:02:00,
2013-09-12 18:07:00,75.4,71.6,29.71,South,190,2.0,2.0,88,0.00,,,0.00,PWS Weather Center,2013-09-12 22:07:00,
2013-09-12 18:12:00,75.3,71.5,29.71,South,182,0.0,1.0,88,0.00,,,0.00,PWS Weather Center,2013-09-12 22:12:00,
2013-09-12 18:17:00,75.1,71.3,29.71,South,186,0.0,0.0,88,0.00,,,0.00,PWS Weather Center,2013-09-12 22:17:00,
2013-09-12 18:22:00,74.9,71.1,29.71,East,88,0.0,0.0,88,0.00,,,0.00,PWS Weather Center,2013-09-12 22:22:00,
2013-09-12 18:27:00,74.7,70.9,29.71,SSE,163,0.0,0.0,88,0.00,,,0.00,PWS Weather Center,2013-09-12 22:27:00,
2013-09-12 18:32:00,74.5,71.0,29.70,SE,140,0.0,2.0,89,0.00,,,0.00,PWS Weather Center,2013-09-12 22:32:00,
2013-09-12 18:37:00,74.2,70.8,29.71,SE,144,0.0,0.0,89,0.00,,,0.00,PWS Weather Center,2013-09-12 22:37:00,
2013-09-12 18:42:00,74.1,71.0,29.70,SE,136,0.0,0.0,90,0.00,,,0.00,PWS Weather Center,2013-09-12 22:42:00,
2013-09-12 18:47:00,74.0,70.9,29.70,SE,141,0.0,0.0,90,0.00,,,0.00,PWS Weather Center,2013-09-12 22:47:00,
2013-09-12 18:52:00,73.9,70.8,29.70,South,186,0.0,5.0,90,0.00,,,0.00,PWS Weather Center,2013-09-12 22:52:00,
2013-09-12 18:57:00,73.7,70.6,29.70,NE,50,0.0,5.0,90,0.00,,,0.00,PWS Weather Center,2013-09-12 22:57:00,
2013-09-12 19:02:00,73.6,70.5,29.70,ENE,73,0.0,0.0,90,0.00,,,0.00,PWS Weather Center,2013-09-12 23:02:00,
2013-09-12 19:07:00,73.5,70.7,29.70,ENE,76,0.0,0.0,91,0.00,,,0.00,PWS Weather Center,2013-09-12 23:07:00,
2013-09-12 19:12:00,73.4,70.6,29.70,ENE,76,0.0,0.0,91,0.00,,,0.00,PWS Weather Center,2013-09-12 23:12:00,
2013-09-12 19:17:00,73.2,70.4,29.70,ENE,73,0.0,2.0,91,0.00,,,0.00,PWS Weather Center,2013-09-12 23:17:00,
2013-09-12 19:22:00,73.1,70.3,29.70,East,98,0.0,1.0,91,0.00,,,0.00,PWS Weather Center,2013-09-12 23:22:00,
2013-09-12 19:27:00,73.0,70.2,29.70,East,96,0.0,4.0,91,0.01,,,0.01,PWS Weather Center,2013-09-12 23:27:00,
2013-09-12 19:32:00,72.8,70.3,29.70,NE,51,2.0,5.0,92,0.02,,,0.02,PWS Weather Center,2013-09-12 23:32:00,
2013-09-12 19:37:00,72.5,70.0,29.70,ENE,68,0.0,0.0,92,0.02,,,0.02,PWS Weather Center,2013-09-12 23:37:00,
2013-09-12 19:42:00,72.2,69.8,29.69,ESE,107,0.0,0.0,92,0.04,,,0.04,PWS Weather Center,2013-09-12 23:42:00,
2013-09-12 19:47:00,71.9,69.8,29.69,East,82,0.0,3.0,93,0.04,,,0.04,PWS Weather Center,2013-09-12 23:47:00,
2013-09-12 19:52:00,71.6,69.5,29.69,East,98,0.0,2.0,93,0.04,,,0.04,PWS Weather Center,2013-09-12 23:52:00,
2013-09-12 19:57:00,71.3,69.2,29.69,East,92,0.0,0.0,93,0.04,,,0.04,PWS Weather Center,2013-09-12 23:57:00,
2013-09-12 20:02:00,71.1,69.0,29.69,East,90,0.0,1.0,93,0.04,,,0.04,PWS Weather Center,2013-09-13 00:02:00,
2013-09-12 20:07:00,71.0,69.2,29.70,ENE,60,0.0,1.0,94,0.04,,,0.04,PWS Weather Center,2013-09-13 00:07:00,
2013-09-12 20:13:00,70.9,69.1,29.70,South,171,0.0,4.0,94,0.04,,,0.04,PWS Weather Center,2013-09-13 00:13:00,
2013-09-12 20:18:00,70.8,69.0,29.70,South,171,0.0,1.0,94,0.04,,,0.04,PWS Weather Center,2013-09-13 00:18:00,
2013-09-12 20:23:00,70.8,69.0,29.70,East,82,0.0,0.0,94,0.04,,,0.04,PWS Weather Center,2013-09-13 00:23:00,
2013-09-12 20:28:00,70.7,68.9,29.70,ESE,123,0.0,2.0,94,0.03,,,0.04,PWS Weather Center,2013-09-13 00:28:00,
2013-09-12 20:33:00,70.7,69.2,29.69,SE,133,0.0,0.0,95,0.02,,,0.04,PWS Weather Center,2013-09-13 00:33:00,
2013-09-12 20:38:00,70.7,69.2,29.70,SE,138,0.0,1.0,95,0.02,,,0.04,PWS Weather Center,2013-09-13 00:38:00,
2013-09-12 20:43:00,70.7,69.2,29.69,ESE,111,0.0,4.0,95,0.00,,,0.04,PWS Weather Center,2013-09-13 00:43:00,
2013-09-12 20:48:00,70.7,69.2,29.70,SE,133,0.0,2.0,95,0.00,,,0.04,PWS Weather Center,2013-09-13 00:48:00,
2013-09-12 20:53:00,70.7,69.2,29.69,SSE,155,3.0,4.0,95,0.00,,,0.04,PWS Weather Center,2013-09-13 00:53:00,
2013-09-12 20:58:00,70.6,69.1,29.69,SW,219,0.0,3.0,95,0.02,,,0.06,PWS Weather Center,2013-09-13 00:58:00,
2013-09-12 21:03:00,70.6,69.1,29.69,South,173,0.0,4.0,95,0.02,,,0.06,PWS Weather Center,2013-09-13 01:03:00,
2013-09-12 21:08:00,70.6,69.1,29.69,SSE,150,0.0,6.0,95,0.04,,,0.08,PWS Weather Center,2013-09-13 01:08:00,
2013-09-12 21:13:00,70.6,69.1,29.70,SSE,159,1.0,6.0,95,0.06,,,0.10,PWS Weather Center,2013-09-13 01:13:00,
2013-09-12 21:18:00,70.6,69.1,29.71,SW,234,5.0,6.0,95,0.06,,,0.10,PWS Weather Center,2013-09-13 01:18:00,
2013-09-12 21:23:00,70.6,69.1,29.71,SSW,202,0.0,6.0,95,0.07,,,0.11,PWS Weather Center,2013-09-13 01:23:00,
2013-09-12 21:28:00,70.3,68.8,29.72,SSW,198,8.0,18.0,95,0.08,,,0.12,PWS Weather Center,2013-09-13 01:28:00,
2013-09-12 21:33:00,69.0,67.2,29.73,SSW,211,8.0,18.0,94,0.17,,,0.22,PWS Weather Center,2013-09-13 01:33:00,
2013-09-12 21:38:00,67.9,66.1,29.72,SSW,198,10.0,12.0,94,0.20,,,0.24,PWS Weather Center,2013-09-13 01:38:00,
2013-09-12 21:44:00,67.1,65.0,29.72,SSW,207,7.0,11.0,93,0.28,,,0.32,PWS Weather Center,2013-09-13 01:44:00,
2013-09-12 21:49:00,66.7,64.9,29.72,SSW,199,2.0,5.0,94,0.34,,,0.38,PWS Weather Center,2013-09-13 01:49:00,
2013-09-12 21:54:00,66.5,64.7,29.72,WSW,238,7.0,8.0,94,0.38,,,0.42,PWS Weather Center,2013-09-13 01:54:00,
2013-09-12 21:59:00,66.4,64.6,29.71,SW,218,6.0,7.0,94,0.38,,,0.44,PWS Weather Center,2013-09-13 01:59:00,
2013-09-12 22:04:00,66.4,64.6,29.71,SW,220,2.0,8.0,94,0.40,,,0.46,PWS Weather Center,2013-09-13 02:04:00,
2013-09-12 22:09:00,66.4,64.9,29.71,WSW,250,1.0,7.0,95,0.40,,,0.48,PWS Weather Center,2013-09-13 02:09:00,
2013-09-12 22:14:00,66.4,64.9,29.70,WSW,237,4.0,6.0,95,0.40,,,0.50,PWS Weather Center,2013-09-13 02:14:00,
2013-09-12 22:19:00,66.4,64.9,29.69,SW,229,2.0,5.0,95,0.41,,,0.51,PWS Weather Center,2013-09-13 02:19:00,
2013-09-12 22:24:00,66.3,64.8,29.69,WSW,249,0.0,1.0,95,0.41,,,0.53,PWS Weather Center,2013-09-13 02:24:00,
2013-09-12 22:29:00,66.3,64.8,29.68,WSW,244,0.0,1.0,95,0.42,,,0.54,PWS Weather Center,2013-09-13 02:29:00,
2013-09-12 22:34:00,66.2,64.7,29.68,South,176,0.0,0.0,95,0.34,,,0.56,PWS Weather Center,2013-09-13 02:34:00,
2013-09-12 22:39:00,66.2,64.7,29.68,SSW,205,0.0,0.0,95,0.32,,,0.56,PWS Weather Center,2013-09-13 02:39:00,
2013-09-12 22:44:00,66.1,64.6,29.68,WSW,250,0.0,0.0,95,0.25,,,0.57,PWS Weather Center,2013-09-13 02:44:00,
2013-09-12 22:50:00,66.1,64.6,29.68,South,176,0.0,0.0,95,0.19,,,0.58,PWS Weather Center,2013-09-13 02:50:00,
2013-09-12 22:55:00,66.1,64.6,29.68,North,360,0.0,0.0,95,0.15,,,0.58,PWS Weather Center,2013-09-13 02:55:00,
2013-09-12 23:00:00,66.1,64.6,29.68,WSW,250,0.0,0.0,95,0.14,,,0.58,PWS Weather Center,2013-09-13 03:00:00,
2013-09-12 23:06:00,66.1,64.6,29.68,SSW,205,0.0,0.0,95,0.12,,,0.58,PWS Weather Center,2013-09-13 03:06:00,
2013-09-12 23:11:00,66.0,64.5,29.68,SSW,205,0.0,0.0,95,0.10,,,0.58,PWS Weather Center,2013-09-13 03:11:00,
2013-09-12 23:16:00,66.0,64.5,29.68,South,177,0.0,0.0,95,0.08,,,0.58,PWS Weather Center,2013-09-13 03:16:00,
2013-09-12 23:21:00,66.0,64.5,29.68,WSW,250,0.0,0.0,95,0.06,,,0.58,PWS Weather Center,2013-09-13 03:21:00,
2013-09-12 23:26:00,66.0,64.5,29.68,WSW,248,0.0,0.0,95,0.04,,,0.58,PWS Weather Center,2013-09-13 03:26:00,
2013-09-12 23:31:00,66.1,64.6,29.68,SW,236,0.0,0.0,95,0.03,,,0.58,PWS Weather Center,2013-09-13 03:31:00,
2013-09-12 23:36:00,66.0,64.5,29.68,WSW,252,0.0,0.0,95,0.02,,,0.58,PWS Weather Center,2013-09-13 03:36:00,
2013-09-12 23:41:00,66.0,64.5,29.68,SSW,205,0.0,0.0,95,0.01,,,0.58,PWS Weather Center,2013-09-13 03:41:00,
2013-09-12 23:46:00,66.0,64.8,29.68,WSW,249,0.0,0.0,96,0.00,,,0.58,PWS Weather Center,2013-09-13 03:46:00,
2013-09-12 23:51:00,66.0,64.8,29.68,South,177,0.0,0.0,96,0.00,,,0.58,PWS Weather Center,2013-09-13 03:51:00,
2013-09-12 23:56:00,65.9,64.7,29.68,WSW,249,0.0,0.0,96,0.00,,,0.58,PWS Weather Center,2013-09-13 03:56:00,